[[{"header":{"parameterUnit":"m.s-1","parameterCategory":1,"la1":30.2991,"la2":30.254,"lo1":-89.0895,"lo2":-89.0444,"dy":0.0017,"dx":0.0017,"nx":28,"ny":28,"refTime":"2024-03-21T09:00:00:Z","depth":0,"parameterNumber":2,"parameterNumberName":"U-component_of_WINDS"},"data":[0,0,0,0,0,0,0,0,0,0,0,0,0,0,0,0,0,0,0,0,0,0,0,0,0,0,0,0,0,0,0,0,0,0,0,0,0,0,0,0,0,0,0,0,0,0,0,0,0,0,0,0,0,0,0,0,0,0,3.3773,3.3772,0,3.371,3.3709,3.3708,3.3724,3.3726,3.3727,3.3728,3.3662,3.3659,3.3656,0,0,0,0,0,0,0,0,0,0,0,0,0,3.391,3.3907,3.3773,3.3772,3.3772,3.371,3.3709,3.3708,3.3724,3.3726,3.3727,3.3729,3.3663,3.3659,3.3656,0,0,0,0,0,0,0,0,0,0,0,0,0,3.3849,3.3906,3.3773,3.3772,3.3771,3.371,3.3709,3.3708,3.3724,3.3726,3.3728,3.3729,3.3664,3.366,3.3655,3.3591,0,0,3.3642,3.364,0,0,0,0,0,0,0,0,3.3852,3.3844,3.3773,3.3772,3.3771,3.3727,3.3733,3.3669,3.3723,3.3742,3.3728,3.373,3.3682,3.3676,3.366,3.3588,3.3585,3.3642,3.3639,3.3637,3.3636,0,0,0,0,0,0,0,3.3856,3.3846,3.3748,3.3772,3.3771,3.3775,3.3769,3.3721,3.3702,3.374,3.3741,3.3734,3.3682,3.3664,3.3659,3.3584,3.3642,3.3638,3.3635,3.3633,3.3462,3.346,0,0,0,0,0,0,3.3861,3.385,3.375,3.3746,3.3817,3.3771,3.3764,3.3739,3.3703,3.3699,3.3732,3.3735,3.3671,3.3664,3.3656,3.3582,3.3637,3.3633,3.363,3.3464,3.3461,3.3459,0,0,0,0,0,0,3.3864,3.3852,3.3753,3.3798,3.3786,3.3767,3.3739,3.3737,3.372,3.3697,3.3693,3.3718,3.3672,3.3663,3.3609,3.358,3.3631,3.3627,3.3466,3.3463,3.346,3.3431,0,0,0,0,0,0,3.3868,3.3853,3.3827,3.3798,3.3784,3.3705,3.3737,3.3734,3.3712,3.3715,3.3682,3.3679,3.3673,3.3615,3.3604,3.3575,3.3624,3.3468,3.3465,3.3461,3.3435,3.3428,3.3422,0,0,0,0,0,3.3873,3.382,3.3826,3.3814,3.3751,3.3703,3.3695,3.369,3.371,3.3685,3.3671,3.368,3.3585,3.3609,3.3597,3.3566,3.347,3.3466,3.3461,3.3438,3.3429,3.3422,0,0,0,0,0,0,3.3845,3.3816,3.3822,3.3758,3.3734,3.3706,3.3674,3.368,3.3648,3.3652,3.3647,3.364,3.3585,3.357,3.3598,3.3505,3.3531,3.3524,3.3517,3.3508,3.3502,3.3507,3.362,0,0,0,0,0,3.3832,3.3795,3.3772,3.3718,3.3705,3.3692,3.3671,3.367,3.3643,3.3632,3.3614,3.3588,3.3553,3.353,3.3496,3.3433,3.3428,3.3406,3.34,3.3395,3.3389,3.3359,3.335,3.3445,3.3445,3.3445,0,0,3.3803,3.3783,3.376,3.3712,3.3692,3.3656,3.3683,3.3641,3.3615,3.3626,3.3575,3.3561,3.3532,3.3474,3.3448,3.346,3.3362,3.3389,3.3385,3.3382,3.3354,3.3345,3.3337,3.3442,3.3442,3.3443,0,0,3.3733,3.3713,3.3669,3.365,3.3621,3.3613,3.3603,3.3575,3.3567,3.3516,3.3525,3.3494,3.3432,3.3413,3.3394,3.3324,3.3332,3.3313,3.3279,3.325,3.3243,3.3236,3.3214,3.3205,3.3307,3.3307,3.3307,0,3.3701,3.3647,3.3644,3.3604,3.3584,3.3595,3.3551,3.3533,3.3494,3.348,3.3495,3.3422,3.3402,3.3343,3.3326,3.331,3.33,3.3316,3.3244,3.3237,3.3231,3.321,3.3201,3.3305,3.3305,3.3305,3.3305,0,3.3611,3.3573,3.354,3.3506,3.3482,3.344,3.3433,3.341,3.3412,3.3403,3.3354,3.3332,3.3296,3.3282,3.3282,3.3223,3.3232,3.3245,3.3271,3.322,3.32,3.3192,3.3302,3.3303,3.3303,3.3304,0,0,3.3518,3.3487,3.3475,3.3462,3.3433,3.3404,3.3365,3.3331,3.3313,3.3287,3.3255,3.3205,3.3219,3.3199,3.3197,3.3172,3.3122,3.3188,3.3188,3.3179,3.306,3.3052,3.3042,3.3127,3.3125,3.3124,3.3063,0,3.3448,3.3379,3.3378,3.3314,3.3282,3.3294,3.326,3.324,3.3232,3.3204,3.3195,3.3161,3.318,3.3168,3.3144,3.3133,3.3098,3.3137,3.3099,3.3098,3.3107,3.3031,3.3021,3.2964,3.3055,3.3054,3.3053,0,3.3355,3.333,3.3264,3.3246,3.3232,3.3201,3.3174,3.3146,3.3124,3.3121,3.3101,3.3105,3.3067,3.3094,3.3043,3.307,3.3054,3.3047,3.3045,3.3042,3.3073,3.3028,3.2946,3.2938,3.304,3.3041,3.3042,0,3.3299,3.3248,3.3203,3.3191,3.3167,3.3146,3.3135,3.3116,3.3097,3.3073,3.3062,3.3032,3.3017,3.2995,3.2992,3.3012,3.2942,3.2968,3.2939,3.294,3.2924,3.2925,3.284,3.2911,3.2912,3.2912,3.2912,0,3.3221,3.3181,3.3178,3.315,3.3107,3.3108,3.3065,3.3056,3.304,3.3012,3.302,3.2994,3.2992,3.2965,3.2962,3.2923,3.2915,3.2912,3.2912,3.2912,3.2913,3.2902,3.2907,3.291,3.291,3.291,3.2911,0,3.3149,3.3146,3.3099,3.3082,3.3077,3.3046,3.3032,3.3007,3.3002,3.2967,3.2959,3.295,3.292,3.2916,3.2879,3.2878,3.2831,3.2834,3.2838,3.2839,3.2812,3.2816,3.2718,3.2707,3.2784,3.2783,3.2783,0,3.31,3.3071,3.3052,3.3036,3.3025,3.2996,3.2979,3.298,3.2961,3.2938,3.2917,3.2888,3.2865,3.2817,3.2807,3.2781,3.2785,3.2753,3.278,3.2783,3.2787,3.279,3.2788,3.2747,3.2746,3.2746,3.2745,0,3.3015,3.3017,3.2992,3.2968,3.2948,3.2928,3.291,3.2895,3.2894,3.2874,3.2844,3.2827,3.2793,3.2765,3.274,3.2729,3.2738,3.2737,3.2729,3.273,3.2735,3.2734,3.2826,3.2739,3.274,3.274,3.274,3.2741,3.2955,3.2931,3.2917,3.289,3.2877,3.2861,3.2839,3.2833,3.2808,3.2781,3.2783,3.2752,3.2736,3.2703,3.2692,3.2668,3.2678,3.2666,3.2664,3.2661,3.266,3.2738,3.2663,3.2663,3.2663,3.2663,3.2663,0,3.2873,3.2865,3.2841,3.2818,3.2798,3.281,3.2792,3.2774,3.2747,3.2731,3.271,3.2679,3.2653,3.2644,3.2619,3.2602,3.2606,3.2596,3.2598,3.2596,3.2651,3.2661,3.2594,3.2594,3.2594,3.2594,3.2594,3.2594,3.2828,3.279,3.279,3.2747,3.2739,3.271,3.2699,3.2685,3.2674,3.2639,3.2619,3.2614,3.2602,3.2577,3.2555,3.2553,3.2545,3.2534,3.2534,3.2585,3.2592,3.2599,3.2608,3.2531,3.2531,3.2482,3.2481,3.2481]},{"header":{"parameterUnit":"m.s-1","parameterCategory":1,"la1":30.2991,"la2":30.254,"lo1":-89.0895,"lo2":-89.0444,"dy":0.0017,"dx":0.0017,"nx":28,"ny":28,"refTime":"2024-03-21T09:00:00:Z","depth":0,"parameterNumber":3,"parameterNumberName":"V-component_of_WINDS"},"data":[0,0,0,0,0,0,0,0,0,0,0,0,0,0,0,0,0,0,0,0,0,0,0,0,0,0,0,0,0,0,0,0,0,0,0,0,0,0,0,0,0,0,0,0,0,0,0,0,0,0,0,0,0,0,0,0,0,0,2.6733,2.6735,0,2.695,2.6952,2.6955,2.6986,2.6984,2.6982,2.698,2.7205,2.7213,2.7221,0,0,0,0,0,0,0,0,0,0,0,0,0,2.6349,2.6356,2.6733,2.6735,2.6738,2.6949,2.6952,2.6955,2.6987,2.6984,2.6982,2.6979,2.7203,2.7212,2.7222,0,0,0,0,0,0,0,0,0,0,0,0,0,2.6536,2.6358,2.6732,2.6779,2.6785,2.6949,2.6953,2.6956,2.6987,2.6984,2.6981,2.6978,2.72,2.7211,2.7223,2.7355,0,0,2.7259,2.7264,0,0,0,0,0,0,0,0,2.6525,2.655,2.6769,2.6776,2.6784,2.6938,2.69,2.709,2.6988,2.6911,2.698,2.6977,2.7119,2.7137,2.7185,2.7366,2.7376,2.726,2.7267,2.7272,2.7275,0,0,0,0,0,0,0,2.6512,2.6541,2.6819,2.6773,2.6781,2.6791,2.6814,2.6936,2.7029,2.6917,2.692,2.6945,2.7122,2.7173,2.719,2.7379,2.726,2.727,2.7277,2.7282,2.7683,2.7687,0,0,0,0,0,0,2.649,2.653,2.6812,2.6825,2.6644,2.68,2.6826,2.6891,2.7028,2.7046,2.6947,2.6946,2.7155,2.7176,2.7198,2.7365,2.7272,2.7283,2.729,2.768,2.7684,2.7688,0,0,0,0,0,0,2.6482,2.6515,2.6803,2.6678,2.6716,2.681,2.6883,2.6897,2.6948,2.7051,2.7068,2.6982,2.7153,2.7182,2.7317,2.7373,2.7288,2.7299,2.7675,2.7681,2.7686,2.7697,0,0,0,0,0,0,2.6471,2.6512,2.6562,2.6679,2.6722,2.6917,2.6886,2.6904,2.6968,2.6968,2.7088,2.7105,2.7153,2.7299,2.7328,2.7387,2.7308,2.7671,2.7678,2.7684,2.7692,2.7702,2.771,0,0,0,0,0,2.6457,2.6556,2.6564,2.6598,2.6787,2.692,2.6944,2.6997,2.6972,2.7025,2.7091,2.7101,2.7361,2.7312,2.7346,2.7409,2.7668,2.7676,2.7684,2.7688,2.77,2.771,0,0,0,0,0,0,2.6444,2.6573,2.6583,2.6723,2.681,2.6925,2.6992,2.7008,2.7104,2.71,2.7163,2.7189,2.7322,2.7379,2.7322,2.7546,2.7513,2.7528,2.7504,2.7517,2.7526,2.751,2.7318,0,0,0,0,0,2.6457,2.6553,2.6661,2.6774,2.6817,2.6897,2.6957,2.699,2.7083,2.712,2.7196,2.7287,2.739,2.7456,2.7556,2.77,2.7728,2.776,2.777,2.7777,2.779,2.7873,2.7889,2.7715,2.7714,2.7714,0,0,2.6486,2.6568,2.6625,2.6774,2.6845,2.6945,2.6928,2.7033,2.7109,2.7137,2.7269,2.7328,2.7434,2.7575,2.764,2.7626,2.7844,2.7787,2.7792,2.7801,2.7883,2.7899,2.7914,2.772,2.7719,2.7718,0,0,2.6589,2.666,2.6763,2.6836,2.6944,2.6997,2.7022,2.7135,2.7175,2.7309,2.7333,2.7423,2.7598,2.7673,2.7734,2.7869,2.7883,2.79,2.7949,2.8029,2.8043,2.8055,2.8105,2.8122,2.7912,2.7912,2.7912,0,2.6611,2.6761,2.6815,2.692,2.6986,2.7016,2.7122,2.719,2.7326,2.7371,2.7353,2.7575,2.7648,2.7808,2.7841,2.7889,2.7921,2.7887,2.8036,2.8049,2.8062,2.811,2.8129,2.7913,2.7913,2.7913,2.7913,0,2.6784,2.6888,2.6959,2.7089,2.7163,2.7268,2.7339,2.7408,2.7435,2.749,2.7628,2.7717,2.7836,2.7876,2.7904,2.8041,2.803,2.8023,2.7991,2.8079,2.8126,2.8145,2.7915,2.7915,2.7914,2.7914,0,0,2.6884,2.7045,2.707,2.7131,2.7253,2.7336,2.7443,2.756,2.7619,2.7712,2.7805,2.7953,2.7949,2.8018,2.8054,2.8125,2.8229,2.811,2.8114,2.8131,2.8389,2.8394,2.8414,2.8238,2.8242,2.8245,2.838,0,2.7003,2.7196,2.7248,2.7411,2.751,2.7541,2.7635,2.7721,2.7776,2.7869,2.793,2.8035,2.802,2.8062,2.8133,2.8201,2.8281,2.8191,2.8328,2.8332,2.8302,2.8438,2.8444,2.8568,2.8399,2.8402,2.8404,0,2.7167,2.7264,2.7438,2.755,2.7594,2.7677,2.779,2.7877,2.7977,2.8012,2.8091,2.8121,2.8237,2.8197,2.8359,2.8297,2.8356,2.8398,2.8404,2.842,2.8374,2.846,2.8608,2.8628,2.8433,2.8431,2.8429,0,2.7226,2.7399,2.7526,2.7577,2.7711,2.777,2.7828,2.7925,2.7993,2.8092,2.8137,2.8247,2.8309,2.8395,2.8455,2.8421,2.8613,2.8578,2.8647,2.8646,2.8687,2.8684,2.8849,2.8722,2.8722,2.8722,2.8721,0,2.7354,2.7459,2.7555,2.7633,2.7752,2.7813,2.793,2.799,2.8076,2.8168,2.8201,2.8287,2.8361,2.8457,2.8506,2.8634,2.8661,2.8694,2.8706,2.8692,2.8688,2.8733,2.8726,2.8727,2.8725,2.8724,2.8724,0,2.7439,2.7507,2.7647,2.7763,2.7795,2.7879,2.7979,2.8057,2.8113,2.8229,2.826,2.8349,2.8465,2.8534,2.8679,2.8712,2.8854,2.8862,2.8821,2.8826,2.8893,2.8886,2.9093,2.9125,2.8975,2.8976,2.8977,0,2.7516,2.7598,2.7724,2.7788,2.7847,2.7949,2.8019,2.8082,2.8154,2.8275,2.8339,2.8456,2.8554,2.8737,2.8816,2.8928,2.894,2.9005,2.8957,2.8942,2.8944,2.8939,2.8949,2.9013,2.9015,2.9016,2.9016,0,2.7648,2.7678,2.7777,2.7889,2.7971,2.8062,2.8153,2.8203,2.8282,2.8361,2.8479,2.8555,2.8705,2.8822,2.8942,2.9004,2.9025,2.9031,2.9053,2.9041,2.9015,2.9032,2.8845,2.9026,2.9025,2.9024,2.9024,2.9023,2.7733,2.7809,2.791,2.8019,2.8094,2.8179,2.8259,2.8326,2.8426,2.8553,2.8584,2.8709,2.881,2.8973,2.9038,2.9138,2.9128,2.9159,2.9168,2.9175,2.9179,2.8997,2.916,2.9159,2.9159,2.9159,2.9159,0,2.7868,2.7935,2.8036,2.8162,2.8249,2.8261,2.8362,2.8435,2.8544,2.8636,2.8732,2.887,2.8984,2.9073,2.9191,2.9254,2.9267,2.9283,2.928,2.9295,2.918,2.9149,2.9271,2.9271,2.9271,2.9271,2.9271,2.9271,2.7949,2.8078,2.8121,2.8289,2.8355,2.8478,2.8535,2.8615,2.8689,2.8841,2.8936,2.8993,2.9085,2.921,2.9316,2.934,2.9383,2.9398,2.9423,2.9314,2.9302,2.9291,2.9263,2.9406,2.9406,2.953,2.9531,2.9532]}]]